Oscoda, MI

5:35 AM EST on December 06, 2019 (GMT -0500)
Oscoda-Wurtsmith

Weather History for KOSC - October, 2019

Change the Weather History Date:

Monday, October 7, 2019

  Actual Average Record
Temperature  
Mean Temperature 54 °F -  
Max Temperature 68 °F 60 °F 89 °F (2007)
Min Temperature 41 °F 40 °F 26 °F (2001)
Degree Days  
Heating Degree Days 10    
Growing Degree Days 4 (Base 50)    
Moisture  
Dew Point 42 °F    
Average Humidity 65    
Maximum Humidity 90    
Minimum Humidity 33    
Precipitation  
Precipitation 0.00 in - - ()
Sea Level Pressure  
Sea Level Pressure 30.07 in    
Wind  
Wind Speed 10 mph (West)    
Max Wind Speed 21 mph    
Max Gust Speed 29 mph    
Visibility 10 miles    
Events      
Averages and records for this station are not official NWS values.
T = Trace of Precipitation, MM = Missing Value Source: NWS Daily Summary

Daily Weather History Graph

Daily Weather History Graph

Search for Another Location

Airport or City:

Astronomy

Oct. 07, 2019 Rise Set
Actual Time 7:38 AM EDT 7:03 PM EDT
Civil Twilight 7:09 AM EDT 7:32 PM EDT
Nautical Twilight 6:35 AM EDT 8:06 PM EDT
Astronomical Twilight 6:01 AM EDT 8:40 PM EDT
Moon 4:40 PM EDT (10/7) 1:13 AM EDT (10/7)
Length of Visible Light 12h 23m
Length of Day
11h 25m
Waxing Gibbous, 69% of the Moon is Illuminated
Oct 7
Waxing Gibbous
Oct 13
Full
Oct 21
Last Quarter
Oct 27
New
Nov 4
First Quarter

Hourly Weather History & Observations

Time (EDT) Temp. Windchill Dew Point Humidity Pressure Visibility Wind Dir Wind Speed Gust Speed Precip Events Conditions
12:00 AM 53.1 °F - 44.8 °F 73% 30.02 in 10.0 mi SW 9.2 mph - N/A   Clear
12:18 AM 51.6 °F - 44.6 °F 77% 30.02 in 10.0 mi SW 6.9 mph - N/A   Clear
12:36 AM 47.7 °F - 43.0 °F 84% 30.02 in 10.0 mi SW 6.9 mph - N/A   Clear
12:55 AM 48.4 °F - 43.7 °F 84% 30.02 in 10.0 mi WSW 6.9 mph - N/A   Clear
1:15 AM 47.5 °F - 43.5 °F 86% 30.01 in 10.0 mi WSW 8.1 mph - N/A   Clear
1:16 AM 47.5 °F - 43.7 °F 87% 30.01 in 10.0 mi WSW 8.1 mph - N/A   Clear
1:38 AM 49.1 °F - 44.6 °F 84% 30.01 in 10.0 mi WSW 9.2 mph - N/A   Clear
1:57 AM 49.3 °F - 45.1 °F 86% 30.01 in 10.0 mi SW 8.1 mph - N/A   Clear
2:15 AM 50.0 °F - 45.9 °F 86% 30.01 in 10.0 mi SW 9.2 mph - N/A   Clear
2:35 AM 50.7 °F - 46.6 °F 86% 30.00 in 10.0 mi SW 10.4 mph - N/A   Clear
2:36 AM 50.7 °F - 46.6 °F 86% 30.00 in 10.0 mi SW 9.2 mph - N/A   Clear
2:55 AM 51.1 °F - 46.8 °F 85% 30.00 in 10.0 mi SW 9.2 mph - N/A   Clear
3:17 AM 51.4 °F - 47.1 °F 85% 29.99 in 10.0 mi SW 9.2 mph - N/A   Clear
3:36 AM 51.1 °F - 46.9 °F 86% 29.99 in 10.0 mi SW 9.2 mph - N/A   Clear
3:55 AM 51.1 °F - 46.9 °F 86% 29.98 in 10.0 mi SW 9.2 mph - N/A   Clear
3:56 AM 51.1 °F - 47.1 °F 86% 29.99 in 10.0 mi SW 8.1 mph - N/A   Clear
4:15 AM 51.4 °F - 47.3 °F 86% 29.98 in 10.0 mi SW 9.2 mph - N/A   Clear
4:39 AM 51.1 °F - 47.1 °F 86% 29.99 in 10.0 mi WSW 9.2 mph - N/A   Clear
4:57 AM 50.9 °F - 46.9 °F 86% 29.99 in 10.0 mi WSW 11.5 mph - N/A   Clear
5:15 AM 50.9 °F - 46.9 °F 86% 30.00 in 10.0 mi WSW 10.4 mph - N/A   Clear
5:16 AM 50.9 °F - 46.8 °F 86% 30.00 in 10.0 mi WSW 9.2 mph - N/A   Clear
5:35 AM 50.0 °F - 46.4 °F 87% 30.01 in 10.0 mi WSW 10.4 mph - N/A   Clear
5:55 AM 50.2 °F - 46.6 °F 87% 30.01 in 10.0 mi SW 9.2 mph - N/A   Clear
6:18 AM 49.6 °F - 46.2 °F 88% 30.01 in 10.0 mi SW 9.2 mph - N/A   Clear
6:35 AM 49.8 °F - 46.0 °F 87% 30.01 in 10.0 mi SW 9.2 mph - N/A   Clear
6:55 AM 49.3 °F - 45.9 °F 88% 30.01 in 10.0 mi SW 9.2 mph - N/A   Clear
7:15 AM 48.4 °F - 45.5 °F 90% 30.01 in 10.0 mi WSW 10.4 mph - N/A   Clear
7:39 AM 48.4 °F - 45.7 °F 90% 30.02 in 10.0 mi WSW 10.4 mph - N/A   Clear
7:57 AM 48.7 °F - 45.7 °F 89% 30.02 in 10.0 mi WSW 9.2 mph - N/A   Clear
8:15 AM 49.3 °F - 46.0 °F 89% 30.02 in 10.0 mi WSW 10.4 mph - N/A   Clear
8:35 AM 50.7 °F - 46.9 °F 87% 30.03 in 10.0 mi WSW 11.5 mph 18.4 mph N/A   Clear
8:55 AM 52.3 °F - 47.7 °F 84% 30.03 in 10.0 mi WSW 10.4 mph - N/A   Clear
9:00 AM 52.7 °F - 47.7 °F 83% 30.03 in 10.0 mi WSW 11.5 mph - N/A   Clear
9:18 AM 54.1 °F - 47.8 °F 79% 30.03 in 10.0 mi WSW 12.7 mph - N/A   Clear
9:36 AM 55.4 °F - 48.2 °F 77% 30.03 in 10.0 mi WSW 12.7 mph - N/A   Clear
9:55 AM 56.8 °F - 47.7 °F 71% 30.04 in 10.0 mi WSW 12.7 mph 21.9 mph N/A   Clear
10:15 AM 57.7 °F - 46.9 °F 67% 30.05 in 10.0 mi West 13.8 mph 19.6 mph N/A   Clear
10:16 AM 57.7 °F - 46.9 °F 67% 30.05 in 10.0 mi West 11.5 mph 19.6 mph N/A   Clear
10:39 AM 59.7 °F - 46.6 °F 62% 30.06 in 10.0 mi West 17.3 mph 20.7 mph N/A   Clear
10:57 AM 60.8 °F - 45.9 °F 58% 30.06 in 10.0 mi West 13.8 mph 19.6 mph N/A   Clear
11:15 AM 61.2 °F - 45.1 °F 56% 30.06 in 10.0 mi West 13.8 mph 19.6 mph N/A   Clear
11:35 AM 62.4 °F - 45.0 °F 53% 30.06 in 10.0 mi WSW 15.0 mph - N/A   Clear
11:55 AM 63.7 °F - 44.1 °F 49% 30.06 in 10.0 mi WSW 13.8 mph - N/A   Clear
12:00 PM 63.9 °F - 43.9 °F 48% 30.06 in 10.0 mi West 13.8 mph - N/A   Clear
12:18 PM 64.6 °F - 42.6 °F 45% 30.06 in 10.0 mi West 13.8 mph 20.7 mph N/A   Clear
12:36 PM 65.5 °F - 42.4 °F 43% 30.06 in 10.0 mi WSW 16.1 mph 23.0 mph N/A   Scattered Clouds
12:55 PM 65.3 °F - 40.1 °F 40% 30.06 in 10.0 mi West 15.0 mph 19.6 mph N/A   Scattered Clouds
1:15 PM 67.1 °F - 41.2 °F 39% 30.06 in 10.0 mi West 12.7 mph 19.6 mph N/A   Mostly Cloudy
1:16 PM 67.5 °F - 41.4 °F 39% 30.06 in 10.0 mi West 12.7 mph 18.4 mph N/A   Mostly Cloudy
1:39 PM 66.2 °F - 37.8 °F 35% 30.05 in 10.0 mi West 15.0 mph 26.5 mph N/A   Scattered Clouds
1:57 PM 68.2 °F - 37.8 °F 33% 30.05 in 10.0 mi WNW 13.8 mph 27.6 mph N/A   Mostly Cloudy
2:15 PM 65.7 °F - 37.4 °F 35% 30.04 in 10.0 mi West 16.1 mph 25.3 mph N/A   Scattered Clouds
2:35 PM 65.7 °F - 37.9 °F 36% 30.04 in 10.0 mi West 18.4 mph 23.0 mph N/A   Scattered Clouds
2:55 PM 63.7 °F - 38.5 °F 39% 30.05 in 10.0 mi WNW 11.5 mph 18.4 mph N/A   Scattered Clouds
2:59 PM 63.5 °F - 38.1 °F 39% 30.05 in 10.0 mi WNW 11.5 mph 18.4 mph N/A   Mostly Cloudy
3:18 PM 67.3 °F - 37.2 °F 33% 30.05 in 10.0 mi WNW 20.7 mph 26.5 mph N/A   Scattered Clouds
3:36 PM 67.3 °F - 37.4 °F 33% 30.06 in 10.0 mi WNW 16.1 mph 28.8 mph N/A   Clear
3:55 PM 67.6 °F - 37.6 °F 33% 30.06 in 10.0 mi West 13.8 mph 21.9 mph N/A   Scattered Clouds
4:15 PM 67.8 °F - 38.3 °F 34% 30.06 in 10.0 mi WNW 11.5 mph 20.7 mph N/A   Mostly Cloudy
4:16 PM 67.8 °F - 38.3 °F 34% 30.06 in 10.0 mi WNW 15.0 mph 20.7 mph N/A   Mostly Cloudy
4:39 PM 66.6 °F - 38.7 °F 36% 30.07 in 10.0 mi WNW 11.5 mph 16.1 mph N/A   Scattered Clouds
4:57 PM 66.2 °F - 37.9 °F 35% 30.07 in 10.0 mi West 11.5 mph 17.3 mph N/A   Scattered Clouds
5:15 PM 65.7 °F - 37.8 °F 36% 30.07 in 10.0 mi WNW 12.7 mph 17.3 mph N/A   Clear
5:35 PM 64.8 °F - 37.4 °F 36% 30.08 in 10.0 mi WNW 11.5 mph 17.3 mph N/A   Clear
5:36 PM 64.8 °F - 37.8 °F 37% 30.09 in 10.0 mi WNW 12.7 mph 17.3 mph N/A   Clear
5:55 PM 63.9 °F - 38.3 °F 39% 30.09 in 10.0 mi WNW 10.4 mph - N/A   Clear
6:18 PM 62.1 °F - 37.8 °F 41% 30.10 in 10.0 mi WNW 8.1 mph - N/A   Clear
6:36 PM 60.3 °F - 38.5 °F 44% 30.11 in 10.0 mi WNW 6.9 mph - N/A   Clear
6:55 PM 57.7 °F - 38.5 °F 49% 30.12 in 10.0 mi WNW 5.8 mph - N/A   Clear
7:15 PM 55.2 °F - 38.5 °F 53% 30.13 in 10.0 mi NW 4.6 mph - N/A   Clear
7:39 PM 54.1 °F - 39.6 °F 58% 30.14 in 10.0 mi WNW 5.8 mph - N/A   Clear
7:57 PM 51.6 °F - 39.0 °F 62% 30.15 in 10.0 mi NW 5.8 mph - N/A   Clear
8:15 PM 51.1 °F - 38.8 °F 63% 30.16 in 10.0 mi NW 5.8 mph - N/A   Clear
8:16 PM 51.1 °F - 38.8 °F 63% 30.16 in 10.0 mi NW 5.8 mph - N/A   Clear
8:35 PM 50.7 °F - 38.7 °F 63% 30.16 in 10.0 mi WNW 4.6 mph - N/A   Clear
8:55 PM 48.2 °F - 37.8 °F 67% 30.17 in 10.0 mi WNW 6.9 mph - N/A   Clear
9:18 PM 48.6 °F - 38.3 °F 68% 30.18 in 10.0 mi NW 8.1 mph - N/A   Clear
9:36 PM 48.7 °F - 38.3 °F 67% 30.19 in 10.0 mi WNW 6.9 mph - N/A   Clear
9:55 PM 47.3 °F - 37.9 °F 70% 30.19 in 10.0 mi WNW 6.9 mph - N/A   Clear
10:15 PM 47.3 °F - 38.1 °F 70% 30.20 in 10.0 mi Calm Calm - N/A   Clear
10:16 PM 47.3 °F - 38.1 °F 70% 30.20 in 10.0 mi Calm Calm - N/A   Clear
10:39 PM 49.3 °F - 38.3 °F 66% 30.21 in 10.0 mi Calm Calm - N/A   Clear
10:57 PM 47.7 °F - 37.9 °F 69% 30.21 in 10.0 mi Calm Calm - N/A   Clear
11:15 PM 43.9 °F 41.3 °F 38.5 °F 81% 30.22 in 10.0 mi WSW 4.6 mph - N/A   Clear
11:35 PM 42.1 °F 40.2 °F 36.7 °F 81% 30.22 in 10.0 mi WSW 3.5 mph - N/A   Clear
11:55 PM 41.7 °F - 36.0 °F 80% 30.22 in 10.0 mi Calm Calm - N/A   Clear
11:59 PM 41.2 °F - 36.0 °F 82% 30.22 in 10.0 mi Calm Calm - N/A   Clear